Weather History for KDUH - March, 2012

Change the Weather History Date:

Thursday, March 29, 2012

  Actual Average (KTOL) Record (KTOL)
Temperature  
Mean Temperature 42 °F 43 °F  
Max Temperature 48 °F 53 °F 80 °F (1963)
Min Temperature 35 °F 33 °F 8 °F (1887)
Degree Days  
Heating Degree Days 24 22  
Month to date heating degree days 806  
Since 1 July heating degree days 5382  
Cooling Degree Days 0 0  
Month to date cooling degree days 0  
Year to date cooling degree days 0  
Moisture  
Dew Point 31 °F    
Average Humidity 63    
Maximum Humidity 78    
Minimum Humidity 53    
Precipitation  
Precipitation 0.00 in 0.09 in 0.77 in (1979)
Month to date precipitation 2.29  
Year to date precipitation 6.41  
Snow  
Snow 0.00 in 0.10 in - ()
Month to date snowfall 5.5  
Since 1 July snowfall 36.0  
Snow Depth -    
Sea Level Pressure  
Sea Level Pressure 30.07 in    
Wind  
Wind Speed 7 mph (North)    
Max Wind Speed 12 mph    
Max Gust Speed 18 mph    
Visibility 10 miles    
Events      
T = Trace of Precipitation, MM = Missing Value Source: NWS Daily Summary

Daily Weather History Graph

Daily Weather History Graph

Search for Another Location

Airport or City:

Trip Planner

Search our weather history database for the weather conditions in past years. The results will help you decide how hot, cold, wet, or windy it might be!

Date:

Astronomy

Mar. 29, 2012 Rise Set
Actual Time 7:21 AM EDT 7:57 PM EDT
Civil Twilight 6:53 AM EDT 8:25 PM EDT
Nautical Twilight 6:20 AM EDT 8:58 PM EDT
Astronomical Twilight 5:46 AM EDT 9:32 PM EDT
Moon 11:25 AM EDT 1:52 AM EDT
Length of Visible Light 13h 31m
Length of Day
12h 35m
Waxing Crescent, 39% of the Moon is Illuminated
Mar 29
Waxing Crescent
Mar 30
First Quarter
Apr 6
Full
Apr 13
Last Quarter
Apr 21
New

Hourly Weather History & Observations

Time (EDT) Temp. Windchill Dew Point Humidity Pressure Visibility Wind Dir Wind Speed Gust Speed Precip Events Conditions
12:14 AM 48.2 °F - 32.0 °F 54% 29.98 in 10.0 mi NNW 11.5 mph 17.3 mph N/A   Mostly Cloudy
12:34 AM 48.2 °F - 32.0 °F 54% 29.98 in 10.0 mi NNW 8.1 mph - N/A   Mostly Cloudy
12:54 AM 47.3 °F - 32.0 °F 55% 29.98 in 10.0 mi NNW 9.2 mph - N/A   Overcast
1:15 AM 47.3 °F - 32.0 °F 55% 29.99 in 10.0 mi NNW 5.8 mph - N/A   Overcast
1:34 AM 47.3 °F - 30.9 °F 53% 30.00 in 10.0 mi North 11.5 mph 17.3 mph N/A   Overcast
1:55 AM 46.4 °F 41.5 °F 30.2 °F 53% 30.00 in 10.0 mi NNW 10.4 mph - N/A   Overcast
2:14 AM 45.5 °F 40.3 °F 30.0 °F 55% 30.00 in 10.0 mi NNW 10.4 mph 17.3 mph N/A   Mostly Cloudy
2:34 AM 44.2 °F 38.4 °F 30.2 °F 58% 30.00 in 10.0 mi NNW 11.5 mph 18.4 mph N/A   Scattered Clouds
2:54 AM 43.0 °F 37.7 °F 29.7 °F 59% 30.01 in 10.0 mi NNW 9.2 mph 16.1 mph N/A   Clear
3:14 AM 42.1 °F 37.1 °F 30.0 °F 62% 30.01 in 10.0 mi NNW 8.1 mph - N/A   Clear
3:35 AM 41.7 °F 36.7 °F 30.2 °F 64% 30.01 in 10.0 mi NNW 8.1 mph - N/A   Clear
3:55 AM 40.6 °F - 30.6 °F 67% 30.01 in 10.0 mi Calm Calm - N/A   Clear
4:14 AM 39.9 °F 35.8 °F 30.9 °F 70% 30.01 in 10.0 mi NNW 5.8 mph - N/A   Clear
4:34 AM 39.7 °F 35.6 °F 30.9 °F 71% 30.02 in 10.0 mi NW 5.8 mph - N/A   Clear
4:54 AM 38.8 °F 36.5 °F 30.6 °F 72% 30.03 in 10.0 mi NNW 3.5 mph - N/A   Clear
5:15 AM 38.1 °F 35.7 °F 30.2 °F 73% 30.03 in 10.0 mi NW 3.5 mph - N/A   Clear
5:35 AM 38.3 °F 35.9 °F 29.7 °F 71% 30.03 in 10.0 mi North 3.5 mph - N/A   Clear
5:55 AM 37.4 °F 34.9 °F 29.5 °F 73% 30.03 in 10.0 mi North 3.5 mph - N/A   Clear
6:14 AM 36.5 °F 32.7 °F 29.3 °F 75% 30.04 in 10.0 mi NNW 4.6 mph - N/A   Clear
6:34 AM 36.5 °F 32.7 °F 29.1 °F 75% 30.04 in 10.0 mi NNW 4.6 mph - N/A   Clear
6:55 AM 36.3 °F 32.5 °F 29.1 °F 75% 30.06 in 10.0 mi NW 4.6 mph - N/A   Clear
7:15 AM 36.0 °F 33.3 °F 28.9 °F 76% 30.07 in 10.0 mi NNW 3.5 mph - N/A   Clear
7:34 AM 35.4 °F 32.6 °F 28.4 °F 76% 30.07 in 10.0 mi NNW 3.5 mph - N/A   Clear
7:55 AM 35.6 °F 32.8 °F 29.3 °F 78% 30.08 in 10.0 mi North 3.5 mph - N/A   Scattered Clouds
8:14 AM 37.4 °F 34.9 °F 30.2 °F 75% 30.09 in 10.0 mi NNW 3.5 mph - N/A   Mostly Cloudy
8:34 AM 39.2 °F 37.0 °F 30.7 °F 72% 30.10 in 10.0 mi NNW 3.5 mph - N/A   Overcast
8:55 AM 40.3 °F - 30.9 °F 69% 30.11 in 10.0 mi Calm Calm - N/A   Overcast
9:14 AM 40.8 °F 36.2 °F 30.0 °F 65% 30.11 in 10.0 mi North 6.9 mph - N/A   Overcast
9:35 AM 41.2 °F 38.2 °F 29.8 °F 64% 30.12 in 10.0 mi North 4.6 mph - N/A   Overcast
9:55 AM 41.5 °F 37.1 °F 30.2 °F 64% 30.12 in 10.0 mi NNW 6.9 mph - N/A   Overcast
10:14 AM 42.1 °F - 30.9 °F 65% 30.12 in 10.0 mi Calm Calm - N/A   Overcast
10:35 AM 42.3 °F 37.3 °F 30.4 °F 63% 30.12 in 10.0 mi NE 8.1 mph - N/A   Overcast
10:54 AM 42.8 °F 39.3 °F 30.6 °F 62% 30.13 in 10.0 mi NE 5.8 mph - N/A   Overcast
11:15 AM 43.2 °F 39.7 °F 30.2 °F 60% 30.13 in 10.0 mi ENE 5.8 mph - N/A   Overcast
11:35 AM 43.5 °F 40.1 °F 30.7 °F 61% 30.14 in 10.0 mi NE 5.8 mph - N/A   Overcast
11:54 AM 43.5 °F 40.9 °F 30.7 °F 61% 30.14 in 10.0 mi East 4.6 mph - N/A   Overcast
12:14 PM 43.9 °F - 31.1 °F 61% 30.14 in 10.0 mi Calm Calm - N/A   Overcast
12:34 PM 44.2 °F 42.7 °F 30.9 °F 60% 30.15 in 10.0 mi North 3.5 mph - N/A   Overcast
12:55 PM 44.6 °F 43.1 °F 31.3 °F 60% 30.14 in 7.0 mi NNE 3.5 mph - N/A   Overcast
1:14 PM 45.3 °F 44.0 °F 31.5 °F 58% 30.14 in 10.0 mi ENE 3.5 mph - N/A   Overcast
1:34 PM 45.5 °F 42.5 °F 31.3 °F 58% 30.13 in 10.0 mi East 5.8 mph - N/A   Overcast
1:55 PM 45.9 °F - 31.6 °F 58% 30.13 in 10.0 mi Calm Calm - N/A   Overcast
2:14 PM 46.2 °F 44.1 °F 31.6 °F 57% 30.12 in 10.0 mi ESE 4.6 mph - N/A   Overcast
2:35 PM 46.8 °F - 32.0 °F 57% 30.12 in 10.0 mi ENE 5.8 mph - N/A   Overcast
2:54 PM 46.9 °F - 31.8 °F 56% 30.11 in 10.0 mi NNE 5.8 mph - N/A   Overcast
3:15 PM 47.3 °F - 32.0 °F 55% 30.10 in 10.0 mi NNE 4.6 mph - N/A   Overcast
3:34 PM 47.3 °F - 32.0 °F 55% 30.10 in 10.0 mi NNE 4.6 mph - N/A   Overcast
3:54 PM 48.0 °F - 32.2 °F 54% 30.10 in 10.0 mi NE 6.9 mph - N/A   Overcast
4:15 PM 47.5 °F - 32.2 °F 55% 30.10 in 10.0 mi ESE 5.8 mph - N/A   Mostly Cloudy
4:34 PM 46.4 °F 42.9 °F 33.3 °F 60% 30.10 in 10.0 mi East 6.9 mph - N/A   Overcast
4:54 PM 46.0 °F 42.5 °F 33.3 °F 61% 30.09 in 10.0 mi ESE 6.9 mph - N/A   Overcast
5:14 PM 45.5 °F 42.5 °F 32.9 °F 61% 30.10 in 10.0 mi NE 5.8 mph - N/A   Mostly Cloudy
5:34 PM 45.1 °F 41.4 °F 32.4 °F 61% 30.10 in 10.0 mi East 6.9 mph - N/A   Mostly Cloudy
5:55 PM 44.8 °F 40.4 °F 32.9 °F 63% 30.10 in 10.0 mi East 8.1 mph - N/A   Mostly Cloudy
6:14 PM 43.9 °F 39.3 °F 32.4 °F 64% 30.10 in 10.0 mi East 8.1 mph - N/A   Scattered Clouds
6:34 PM 44.1 °F 38.6 °F 32.5 °F 64% 30.10 in 10.0 mi ENE 10.4 mph - N/A   Clear
6:55 PM 43.7 °F 38.1 °F 32.9 °F 66% 30.10 in 10.0 mi ESE 10.4 mph - N/A   Scattered Clouds
7:14 PM 43.3 °F 40.7 °F 32.5 °F 66% 30.11 in 10.0 mi East 4.6 mph - N/A   Mostly Cloudy
7:34 PM 43.0 °F 39.5 °F 32.4 °F 66% 30.12 in 10.0 mi ESE 5.8 mph - N/A   Overcast
7:55 PM 42.8 °F 38.0 °F 32.4 °F 67% 30.12 in 10.0 mi ESE 8.1 mph - N/A   Overcast
8:14 PM 42.4 °F 38.1 °F 32.4 °F 68% 30.12 in 10.0 mi East 6.9 mph - N/A   Overcast
8:35 PM 42.1 °F 38.4 °F 32.0 °F 67% 30.12 in 10.0 mi East 5.8 mph - N/A   Mostly Cloudy
8:54 PM 42.3 °F 38.6 °F 32.0 °F 67% 30.13 in 10.0 mi East 5.8 mph - N/A   Overcast
9:14 PM 42.3 °F 40.5 °F 32.0 °F 67% 30.14 in 10.0 mi East 3.5 mph - N/A   Mostly Cloudy
9:34 PM 41.9 °F 40.0 °F 31.6 °F 67% 30.14 in 10.0 mi East 3.5 mph - N/A   Mostly Cloudy
9:54 PM 41.9 °F - 31.5 °F 66% 30.14 in 10.0 mi Calm Calm - N/A   Mostly Cloudy
10:14 PM 41.0 °F 39.0 °F 31.6 °F 69% 30.14 in 10.0 mi ENE 3.5 mph - N/A   Mostly Cloudy
10:34 PM 41.0 °F 38.0 °F 31.3 °F 68% 30.14 in 10.0 mi ENE 4.6 mph - N/A   Mostly Cloudy
10:54 PM 40.1 °F 36.9 °F 31.1 °F 70% 30.13 in 10.0 mi East 4.6 mph - N/A   Scattered Clouds
11:14 PM 39.9 °F 37.8 °F 30.9 °F 70% 30.13 in 10.0 mi ENE 3.5 mph - N/A   Clear
11:34 PM 39.6 °F 36.3 °F 30.7 °F 71% 30.12 in 10.0 mi East 4.6 mph - N/A   Clear
11:55 PM 39.4 °F 36.1 °F 30.6 °F 71% 30.11 in 10.0 mi East 4.6 mph - N/A   Clear